timestamp,wind_dir_avg,wind_spd_max_dir,wind_spd_avg,wind_spd_gust,battery_voltage,lat,long
2019-02-22 00:00:00+00:00,316.0,305.0,4.32,5.71,,47.59359,-54.27349
2019-02-22 00:10:00+00:00,318.0,312.0,5.38,6.38,,47.59359,-54.27349
2019-02-22 00:20:00+00:00,311.0,315.0,4.77,5.87,,47.59359,-54.27349
2019-02-22 00:30:00+00:00,308.0,307.0,4.65,5.85,,47.59359,-54.27349
2019-02-22 00:40:00+00:00,320.0,327.0,5.61,6.36,,47.59359,-54.27349
2019-02-22 00:50:00+00:00,322.0,311.0,5.7,6.64,,47.59359,-54.27349
2019-02-22 01:00:00+00:00,329.0,328.0,4.32,5.27,,47.59359,-54.27349
2019-02-22 01:10:00+00:00,336.0,332.0,5.35,6.37,,47.59359,-54.27349
2019-02-22 01:20:00+00:00,328.0,319.0,4.86,6.08,,47.59359,-54.27349
2019-02-22 01:30:00+00:00,329.0,323.0,4.97,6.27,,47.59359,-54.27349
2019-02-22 01:40:00+00:00,330.0,321.0,4.28,5.15,,47.59359,-54.27349
2019-02-22 01:50:00+00:00,337.0,346.0,4.85,5.77,,47.59359,-54.27349
2019-02-22 02:00:00+00:00,339.0,345.0,5.07,5.86,,47.59359,-54.27349
2019-02-22 02:10:00+00:00,0.0,10.0,4.29,5.63,,47.59359,-54.27349
2019-02-22 02:20:00+00:00,8.0,5.0,3.68,5.82,,47.59359,-54.27349
2019-02-22 02:30:00+00:00,345.0,352.0,3.6,4.78,,47.59359,-54.27349
2019-02-22 02:40:00+00:00,6.0,6.0,2.67,4.29,,47.59359,-54.27349
2019-02-22 02:50:00+00:00,12.0,21.0,3.59,5.12,,47.59359,-54.27349
2019-02-22 03:00:00+00:00,1.0,359.0,3.57,6.38,,47.59359,-54.27349
2019-02-22 03:10:00+00:00,22.0,29.0,4.76,5.82,,47.59359,-54.27349
2019-02-22 03:20:00+00:00,32.0,32.0,4.74,6.35,,47.59359,-54.27349
2019-02-22 03:30:00+00:00,36.0,43.0,5.41,6.83,,47.59359,-54.27349
2019-02-22 03:40:00+00:00,21.0,32.0,4.58,5.61,,47.59359,-54.27349
2019-02-22 03:50:00+00:00,21.0,35.0,3.0,4.93,,47.59359,-54.27349
2019-02-22 04:00:00+00:00,31.0,27.0,4.44,5.8,,47.59359,-54.27349
2019-02-22 04:10:00+00:00,6.0,9.0,3.0,4.65,,47.59359,-54.27349
2019-02-22 04:20:00+00:00,20.0,13.0,3.35,5.28,,47.59359,-54.27349
2019-02-22 04:30:00+00:00,23.0,28.0,4.52,5.74,,47.59359,-54.27349
2019-02-22 04:40:00+00:00,8.0,13.0,3.35,5.41,,47.59359,-54.27349
2019-02-22 04:50:00+00:00,30.0,30.0,3.67,5.6,,47.59359,-54.27349
2019-02-22 05:00:00+00:00,19.0,16.0,4.15,6.05,,47.59359,-54.27349
2019-02-22 05:10:00+00:00,28.0,16.0,4.74,6.3,,47.59359,-54.27349
2019-02-22 05:20:00+00:00,29.0,34.0,5.74,7.48,,47.59359,-54.27349
2019-02-22 05:30:00+00:00,25.0,25.0,5.61,7.78,,47.59359,-54.27349
2019-02-22 05:40:00+00:00,10.0,14.0,4.9,6.65,,47.59359,-54.27349
2019-02-22 05:50:00+00:00,19.0,12.0,4.86,6.74,,47.59359,-54.27349
2019-02-22 06:00:00+00:00,2.0,355.0,4.2,5.65,,47.59359,-54.27349
2019-02-22 06:10:00+00:00,1.0,356.0,4.3,6.56,,47.59359,-54.27349
2019-02-22 06:20:00+00:00,5.0,3.0,5.53,7.05,,47.59359,-54.27349
2019-02-22 06:30:00+00:00,10.0,1.0,4.85,5.97,,47.59359,-54.27349
2019-02-22 06:40:00+00:00,15.0,10.0,5.02,7.13,,47.59359,-54.27349
2019-02-22 06:50:00+00:00,11.0,26.0,5.67,7.78,,47.59359,-54.27349
2019-02-22 07:00:00+00:00,16.0,7.0,5.66,7.06,,47.59359,-54.27349
2019-02-22 07:10:00+00:00,5.0,6.0,5.8,7.56,,47.59359,-54.27349
2019-02-22 07:20:00+00:00,9.0,8.0,6.55,7.65,,47.59359,-54.27349
2019-02-22 07:30:00+00:00,11.0,12.0,6.19,7.79,,47.59359,-54.27349
2019-02-22 07:40:00+00:00,15.0,24.0,7.14,8.29,,47.59359,-54.27349
2019-02-22 07:50:00+00:00,17.0,30.0,6.56,8.12,,47.59359,-54.27349
2019-02-22 08:00:00+00:00,21.0,31.0,6.85,8.27,,47.59359,-54.27349
2019-02-22 08:10:00+00:00,27.0,32.0,7.53,8.68,,47.59359,-54.27349
2019-02-22 08:20:00+00:00,16.0,23.0,7.16,8.53,,47.59359,-54.27349
2019-02-22 08:30:00+00:00,16.0,12.0,5.93,7.98,,47.59359,-54.27349
2019-02-22 08:40:00+00:00,16.0,21.0,6.58,8.2,,47.59359,-54.27349
2019-02-22 08:50:00+00:00,16.0,22.0,6.41,8.02,,47.59359,-54.27349
2019-02-22 09:00:00+00:00,15.0,29.0,6.57,8.81,,47.59359,-54.27349
2019-02-22 09:10:00+00:00,15.0,19.0,7.12,8.33,,47.59359,-54.27349
2019-02-22 09:20:00+00:00,13.0,18.0,6.66,8.12,,47.59359,-54.27349
2019-02-22 09:30:00+00:00,10.0,9.0,6.87,7.84,,47.59359,-54.27349
2019-02-22 09:40:00+00:00,12.0,14.0,6.81,7.95,,47.59359,-54.27349
2019-02-22 09:50:00+00:00,5.0,11.0,5.93,8.03,,47.59359,-54.27349
2019-02-22 10:00:00+00:00,7.0,15.0,7.08,7.89,,47.59359,-54.27349
2019-02-22 10:10:00+00:00,2.0,6.0,6.73,7.98,,47.59359,-54.27349
2019-02-22 10:20:00+00:00,21.0,14.0,5.93,7.13,,47.59359,-54.27349
2019-02-22 10:30:00+00:00,356.0,356.0,6.99,7.82,,47.59359,-54.27349
2019-02-22 10:40:00+00:00,356.0,0.0,6.78,7.88,,47.59359,-54.27349
2019-02-22 10:50:00+00:00,1.0,9.0,6.5,7.66,,47.59359,-54.27349
2019-02-22 11:00:00+00:00,8.0,1.0,5.89,7.76,,47.59359,-54.27349
2019-02-22 11:10:00+00:00,11.0,16.0,6.96,8.04,,47.59359,-54.27349
2019-02-22 11:20:00+00:00,7.0,5.0,7.1,7.83,,47.59359,-54.27349
2019-02-22 11:30:00+00:00,20.0,13.0,6.25,7.11,,47.59359,-54.27349
2019-02-22 11:40:00+00:00,10.0,16.0,6.45,7.97,,47.59359,-54.27349
2019-02-22 11:50:00+00:00,9.0,15.0,6.72,7.96,,47.59359,-54.27349
2019-02-22 12:00:00+00:00,12.0,5.0,6.67,7.85,,47.59359,-54.27349
2019-02-22 12:10:00+00:00,4.0,5.0,5.9,7.13,,47.59359,-54.27349
2019-02-22 12:20:00+00:00,359.0,358.0,6.96,8.03,,47.59359,-54.27349
2019-02-22 12:30:00+00:00,2.0,1.0,6.33,7.46,,47.59359,-54.27349
2019-02-22 12:40:00+00:00,14.0,2.0,5.38,7.45,,47.59359,-54.27349
2019-02-22 12:50:00+00:00,3.0,10.0,6.27,7.47,,47.59359,-54.27349
2019-02-22 13:00:00+00:00,12.0,12.0,6.09,6.86,,47.59359,-54.27349
2019-02-22 13:10:00+00:00,359.0,1.0,6.54,7.4,,47.59359,-54.27349
2019-02-22 13:20:00+00:00,18.0,15.0,4.56,5.5,,47.59359,-54.27349
2019-02-22 13:30:00+00:00,4.0,7.0,6.74,7.57,,47.59359,-54.27349
2019-02-22 13:40:00+00:00,359.0,354.0,5.28,6.76,,47.59359,-54.27349
2019-02-22 13:50:00+00:00,349.0,345.0,6.82,7.65,,47.59359,-54.27349
2019-02-22 14:00:00+00:00,350.0,14.0,3.73,6.28,,47.59359,-54.27349
2019-02-22 14:10:00+00:00,358.0,354.0,5.38,6.88,,47.59359,-54.27349
2019-02-22 14:20:00+00:00,348.0,343.0,5.55,5.98,,47.59359,-54.27349
2019-02-22 14:30:00+00:00,355.0,357.0,5.39,6.65,,47.59359,-54.27349
2019-02-22 14:40:00+00:00,332.0,335.0,6.1,7.18,,47.59359,-54.27349
2019-02-22 14:50:00+00:00,343.0,340.0,5.89,7.09,,47.59359,-54.27349
2019-02-22 15:00:00+00:00,350.0,353.0,7.8,9.8,,47.59359,-54.27349
2019-02-22 15:10:00+00:00,356.0,353.0,7.34,9.79,,47.59359,-54.27349
2019-02-22 15:20:00+00:00,341.0,334.0,7.49,9.46,,47.59359,-54.27349
2019-02-22 15:30:00+00:00,332.0,322.0,6.07,7.36,,47.59359,-54.27349
2019-02-22 15:40:00+00:00,324.0,325.0,5.62,7.44,,47.59359,-54.27349
2019-02-22 15:50:00+00:00,346.0,346.0,7.36,9.05,,47.59359,-54.27349
2019-02-22 16:00:00+00:00,343.0,343.0,6.06,6.98,,47.59359,-54.27349
2019-02-22 16:10:00+00:00,355.0,353.0,5.6,7.1,,47.59359,-54.27349
2019-02-22 16:20:00+00:00,332.0,325.0,6.34,7.85,,47.59359,-54.27349
2019-02-22 16:30:00+00:00,322.0,328.0,5.93,7.21,,47.59359,-54.27349
2019-02-22 16:40:00+00:00,343.0,336.0,7.01,8.79,,47.59359,-54.27349
2019-02-22 16:50:00+00:00,343.0,349.0,7.13,8.37,,47.59359,-54.27349
2019-02-22 17:00:00+00:00,337.0,336.0,7.98,9.18,,47.59359,-54.27349
2019-02-22 17:10:00+00:00,332.0,329.0,6.61,7.3,,47.59359,-54.27349
2019-02-22 17:20:00+00:00,3.0,3.0,8.28,10.94,,47.59359,-54.27349
2019-02-22 17:30:00+00:00,343.0,352.0,9.32,11.74,,47.59359,-54.27349
2019-02-22 17:40:00+00:00,330.0,332.0,9.26,10.52,,47.59359,-54.27349
2019-02-22 17:50:00+00:00,335.0,336.0,5.12,6.01,,47.59359,-54.27349
2019-02-22 18:00:00+00:00,336.0,342.0,8.37,9.75,,47.59359,-54.27349
2019-02-22 18:10:00+00:00,339.0,344.0,10.16,12.68,,47.59359,-54.27349
2019-02-22 18:20:00+00:00,343.0,346.0,8.72,10.27,,47.59359,-54.27349
2019-02-22 18:30:00+00:00,316.0,322.0,8.75,10.73,,47.59359,-54.27349
2019-02-22 18:40:00+00:00,325.0,324.0,9.52,11.2,,47.59359,-54.27349
2019-02-22 18:50:00+00:00,323.0,324.0,5.72,7.04,,47.59359,-54.27349
2019-02-22 19:00:00+00:00,303.0,301.0,8.58,9.88,,47.59359,-54.27349
2019-02-22 19:10:00+00:00,305.0,307.0,5.58,6.41,,47.59359,-54.27349
2019-02-22 19:20:00+00:00,307.0,313.0,6.49,8.8,,47.59359,-54.27349
2019-02-22 19:30:00+00:00,315.0,312.0,9.1,10.9,,47.59359,-54.27349
2019-02-22 19:40:00+00:00,306.0,302.0,9.53,10.66,,47.59359,-54.27349
2019-02-22 19:50:00+00:00,320.0,320.0,9.49,10.87,,47.59359,-54.27349
2019-02-22 20:00:00+00:00,302.0,298.0,7.97,9.66,,47.59359,-54.27349
2019-02-22 20:10:00+00:00,294.0,293.0,7.57,9.42,,47.59359,-54.27349
2019-02-22 20:20:00+00:00,303.0,302.0,8.7,9.92,,47.59359,-54.27349
2019-02-22 20:30:00+00:00,301.0,303.0,9.03,10.1,,47.59359,-54.27349
2019-02-22 20:40:00+00:00,309.0,297.0,7.88,8.9,,47.59359,-54.27349
2019-02-22 20:50:00+00:00,302.0,309.0,7.03,8.12,,47.59359,-54.27349
2019-02-22 21:00:00+00:00,301.0,304.0,7.99,9.2,,47.59359,-54.27349
2019-02-22 21:10:00+00:00,294.0,298.0,7.18,8.41,,47.59359,-54.27349
2019-02-22 21:20:00+00:00,297.0,292.0,6.93,8.14,,47.59359,-54.27349
2019-02-22 21:30:00+00:00,291.0,291.0,7.14,8.01,,47.59359,-54.27349
2019-02-22 21:40:00+00:00,284.0,290.0,6.46,7.37,,47.59359,-54.27349
2019-02-22 21:50:00+00:00,291.0,290.0,6.94,8.02,,47.59359,-54.27349
2019-02-22 22:00:00+00:00,285.0,294.0,6.41,7.52,,47.59359,-54.27349
2019-02-22 22:10:00+00:00,285.0,291.0,6.12,7.71,,47.59359,-54.27349
2019-02-22 22:20:00+00:00,287.0,293.0,5.6,6.85,,47.59359,-54.27349
2019-02-22 22:30:00+00:00,295.0,304.0,5.86,6.86,,47.59359,-54.27349
2019-02-22 22:40:00+00:00,305.0,302.0,7.65,8.93,,47.59359,-54.27349
2019-02-22 22:50:00+00:00,310.0,309.0,8.08,9.5,,47.59359,-54.27349
2019-02-22 23:00:00+00:00,306.0,306.0,7.59,8.69,,47.59359,-54.27349
2019-02-22 23:10:00+00:00,300.0,304.0,7.0,8.26,,47.59359,-54.27349
2019-02-22 23:20:00+00:00,298.0,296.0,6.79,7.8,,47.59359,-54.27349
2019-02-22 23:30:00+00:00,306.0,306.0,7.16,8.1,,47.59359,-54.27349
2019-02-22 23:40:00+00:00,311.0,311.0,7.75,9.36,,47.59359,-54.27349
2019-02-22 23:50:00+00:00,312.0,312.0,7.79,9.27,,47.59359,-54.27349
